Temp
-7 -7 -7 -7 -7 -7 -7 -7 -7 -7 -7 -7 -7 -7 -7 -7 -7 -7 -7 -7 -7 -7 -7 -7 -7 -7 -7 -7 -7 -7 -7 -7 -7 -7 -7 -7 -6 -6 -6 -6 -7 -7 -7
-7 -7 -7 -7 -7 -7 -7 -7 -7 -7 -7 -7 -7 -7 -7 -7 -7 -7 -7 -7 -7 -7 -7 -7 -7 -7 -8 -8 -7 -7 -7 -7 -7 -7 -7 -7 -6 -6 -6 -6 -7 -7 -7
-7 -7 -7 -7 -7 -7 -7 -7 -7 -7 -7 -7 -7 -8 -7 -7 -8 -8 -8 -7 -7 -7 -7 -7 -8 -7 -7 -7 -7 -7 -7 -7 -7 -7 -7 -7 -7 -6 -6 -6 -6 -7 -7
-7 -7 -7 -7 -7 -7 -7 -7 -7 -7 -7 -8 -8 -8 -8 -8 -8 -8 -8 -8 -8 -8 -8 -8 -8 -7 -7 -7 -7 -7 -7 -7 -7 -7 -7 -7 -7 -7 -7 -6 -6 -7 -7
-8 -8 -7 -7 -7 -7 -7 -7 -7 -8 -8 -8 -8 -8 -8 -8 -8 -8 -8 -8 -8 -8 -8 -8 -8 -8 -8 -8 -8 -8 -8 -7 -7 -7 -7 -7 -7 -7 -7 -7 -7 -7 -7
-8 -8 -8 -8 -7 -7 -7 -7 -8 -8 -8 -8 -8 -8 -8 -8 -8 -8 -8 -8 -8 -8 -8 -8 -8 -8 -8 -8 -8 -8 -8 -8 -8 -8 -7 -7 -7 -7 -7 -7 -7 -7 -7
-8 -8 -8 -8 -8 -8 -8 -8 -8 -8 -8 -8 -8 -8 -8 -8 -8 -8 -9 -9 -8 -8 -8 -8 -8 -8 -8 -8 -8 -8 -8 -8 -8 -8 -8 -8 -8 -7 -7 -7 -8 -8 -8
-8 -8 -8 -8 -8 -8 -8 -8 -8 -8 -8 -8 -8 -9 -9 -9 -9 -9 -9 -9 -9 -9 -9 -8 -8 -8 -8 -8 -8 -8 -8 -8 -8 -8 -8 -8 -8 -8 -8 -8 -8 -8 -8
-9 -9 -8 -8 -8 -8 -8 -8 -8 -8 -8 -9 -9 -9 -9 -9 -9 -9 -9 -9 -9 -9 -9 -9 -9 -9 -9 -9 -9 -9 -9 -9 -8 -8 -8 -8 -8 -8 -8 -8 -9 -9 -9
-9 -9 -9 -9 -9 -8 -8 -8 -9 -9 -9 -9 -9 -9 -9 -9 -9 -9 -9 -9 -9 -9 -9 -9 -9 -9 -9 -9 -9 -9 -9 -9 -9 -9 -9 -9 -9 -8 -8 -9 -9 -9 -9
-10 -9 -9 -9 -9 -9 -9 -9 -9 -9 -9 -9 -9 -9 -9 -9 -10 -10 -10 -10 -10 -10 -10 -9 -9 -9 -9 -9 -9 -9 -9 -9 -9 -9 -9 -9 -9 -9 -9 -9 -9 -9 -9
-10 -10 -9 -9 -9 -9 -9 -9 -9 -9 -9 -9 -9 -9 -9 -9 -10 -10 -10 -10 -10 -10 -10 -10 -10 -10 -10 -10 -9 -9 -9 -9 -9 -9 -9 -9 -9 -9 -9 -9 -9 -9 -10
-11 -10 -10 -10 -9 -10 -10 -9 -10 -10 -9 -9 -9 -10 -10 -10 -10 -10 -10 -11 -11 -10 -10 -10 -10 -10 -10 -10 -10 -10 -10 -9 -10 -10 -10 -9 -9 -9 -9 -10 -10 -10 -10
-11 -11 -11 -10 -10 -10 -10 -10 -10 -10 -10 -10 -10 -10 -10 -10 -10 -10 -10 -11 -11 -11 -11 -11 -11 -10 -10 -10 -10 -10 -10 -10 -10 -10 -10 -10 -10 -10 -10 -10 -10 -10 -10
-11 -12 -12 -11 -11 -10 -10 -10 -10 -11 -11 -10 -10 -10 -10 -10 -10 -10 -10 -11 -11 -11 -11 -11 -11 -11 -11 -10 -10 -10 -10 -10 -10 -10 -10 -10 -10 -10 -10 -10 -10 -10 -10
-12 -12 -12 -12 -11 -11 -11 -11 -11 -11 -11 -10 -10 -10 -10 -10 -10 -10 -10 -11 -11 -12 -12 -11 -11 -11 -11 -11 -11 -11 -10 -10 -10 -10 -10 -10 -10 -10 -10 -10 -10 -10 -10
-12 -12 -11 -12 -12 -12 -12 -12 -11 -11 -11 -11 -11 -11 -11 -11 -10 -10 -10 -11 -11 -12 -12 -12 -11 -11 -11 -11 -11 -11 -11 -10 -10 -11 -11 -11 -11 -11 -10 -10 -11 -11 -11
-12 -12 -12 -12 -12 -12 -12 -12 -12 -11 -11 -11 -11 -11 -11 -11 -11 -11 -10 -11 -11 -12 -12 -12 -12 -11 -11 -11 -11 -11 -11 -11 -11 -11 -11 -11 -11 -11 -11 -11 -11 -11 -10
-12 -12 -12 -12 -12 -12 -12 -12 -12 -12 -12 -11 -11 -11 -11 -11 -11 -11 -11 -11 -11 -11 -12 -12 -12 -12 -12 -12 -11 -11 -11 -11 -11 -11 -11 -11 -11 -11 -11 -11 -11 -11 -11
-12 -13 -13 -12 -12 -12 -12 -12 -12 -12 -12 -12 -11 -11 -11 -11 -11 -11 -11 -11 -11 -11 -12 -12 -12 -12 -12 -12 -12 -12 -11 -11 -11 -11 -11 -11 -11 -11 -11 -11 -11 -11 -11
-13 -12 -13 -13 -13 -12 -12 -12 -12 -12 -12 -12 -12 -12 -12 -11 -11 -11 -11 -11 -11 -11 -11 -12 -12 -12 -12 -12 -12 -12 -12 -12 -12 -12 -12 -11 -11 -11 -11 -11 -11 -11 -12
-13 -13 -13 -13 -13 -13 -12 -12 -12 -12 -12 -12 -12 -12 -12 -12 -12 -12 -11 -11 -11 -11 -11 -11 -12 -12 -12 -12 -12 -12 -12 -12 -12 -12 -12 -12 -11 -11 -11 -11 -12 -12 -11
-14 -13 -13 -13 -13 -13 -13 -13 -12 -12 -12 -12 -12 -12 -12 -12 -12 -12 -12 -11 -11 -11 -11 -11 -12 -12 -12 -12 -12 -12 -12 -12 -12 -12 -12 -12 -12 -12 -12 -12 -12 -12 -12
-13 -13 -13 -13 -13 -13 -13 -13 -13 -13 -13 -13 -13 -13 -13 -12 -12 -12 -12 -12 -11 -11 -12 -12 -12 -12 -13 -13 -13 -13 -12 -12 -12 -12 -12 -12 -12 -12 -12 -12 -12 -12 -12
-13 -13 -14 -12 -13 -13 -13 -13 -13 -13 -13 -13 -13 -13 -13 -13 -12 -12 -12 -12 -12 -12 -12 -13 -13 -13 -13 -13 -13 -13 -13 -12 -12 -12 -12 -12 -12 -12 -12 -12 -12 -12 -12
-13 -13 -13 -13 -14 -14 -14 -14 -13 -14 -13 -14 -13 -13 -13 -12 -13 -12 -12 -12 -12 -12 -13 -13 -13 -13 -13 -13 -13 -13 -13 -12 -13 -13 -13 -13 -13 -13 -13 -12 -13 -13 -13
Height
5884 5885 5886 5887 5887 5888 5888 5888 5888 5889 5890 5890 5890 5890 5889 5889 5888 5887 5886 5884 5883 5882 5881 5880 5879 5878 5877 5877 5876 5874 5873 5872 5871 5870 5869 5867 5865 5864 5861 5859 5857 5854 5852
5882 5884 5885 5886 5886 5887 5887 5888 5888 5889 5889 5889 5889 5889 5889 5888 5887 5886 5885 5884 5883 5881 5880 5880 5879 5878 5877 5877 5876 5875 5873 5872 5871 5869 5868 5866 5864 5862 5860 5857 5855 5852 5850
5881 5882 5884 5885 5885 5886 5887 5887 5888 5888 5888 5888 5889 5889 5888 5888 5887 5886 5885 5884 5883 5881 5880 5879 5879 5878 5877 5876 5875 5874 5873 5871 5870 5868 5867 5865 5863 5861 5859 5856 5853 5850 5848
5879 5880 5882 5883 5884 5885 5886 5886 5887 5887 5888 5888 5888 5888 5887 5887 5886 5886 5885 5884 5882 5881 5880 5879 5878 5877 5876 5875 5874 5873 5872 5870 5869 5867 5865 5863 5861 5859 5856 5854 5852 5849 5846
5876 5878 5880 5881 5882 5883 5884 5885 5886 5886 5887 5887 5887 5887 5887 5887 5886 5885 5884 5883 5881 5880 5879 5878 5877 5876 5875 5874 5873 5872 5870 5869 5867 5866 5864 5862 5859 5856 5855 5852 5850 5847 5844
5874 5876 5878 5879 5881 5882 5883 5884 5884 5885 5885 5886 5886 5886 5886 5886 5885 5884 5882 5881 5880 5879 5878 5877 5876 5875 5874 5873 5871 5870 5868 5867 5866 5864 5862 5860 5857 5854 5852 5850 5847 5844 5841
5871 5873 5875 5877 5878 5880 5881 5882 5883 5884 5884 5884 5885 5885 5885 5884 5883 5882 5882 5880 5879 5878 5877 5876 5875 5874 5872 5871 5869 5868 5866 5865 5864 5862 5860 5858 5855 5853 5850 5848 5845 5841 5838
5868 5870 5872 5874 5876 5877 5879 5880 5881 5882 5883 5883 5883 5883 5883 5882 5882 5881 5880 5880 5878 5877 5876 5874 5873 5872 5870 5869 5867 5865 5864 5862 5861 5859 5857 5855 5853 5850 5847 5845 5842 5839 5835
5864 5867 5869 5871 5873 5875 5876 5877 5879 5880 5880 5881 5881 5881 5880 5880 5879 5879 5878 5878 5877 5876 5875 5873 5872 5870 5869 5867 5866 5864 5862 5860 5858 5856 5854 5852 5850 5847 5845 5843 5840 5837 5833
5860 5863 5865 5867 5868 5872 5874 5875 5876 5877 5877 5878 5879 5879 5878 5877 5877 5876 5876 5875 5874 5873 5872 5871 5870 5868 5867 5865 5864 5862 5860 5858 5855 5853 5851 5849 5848 5845 5842 5840 5837 5834 5831
5857 5860 5862 5863 5864 5868 5871 5872 5873 5873 5875 5876 5876 5876 5875 5874 5874 5873 5872 5872 5871 5870 5870 5868 5867 5866 5864 5863 5861 5859 5857 5855 5853 5850 5849 5846 5844 5842 5839 5837 5834 5831 5827
5851 5855 5857 5859 5861 5863 5867 5868 5870 5871 5872 5872 5873 5872 5872 5871 5870 5870 5869 5868 5867 5867 5866 5865 5864 5862 5861 5859 5857 5856 5854 5852 5850 5847 5845 5843 5841 5838 5835 5833 5831 5827 5824
5845 5848 5852 5855 5857 5860 5862 5864 5866 5868 5868 5869 5870 5869 5869 5868 5867 5866 5865 5864 5863 5863 5862 5861 5860 5858 5857 5855 5854 5852 5850 5848 5846 5844 5842 5839 5837 5834 5831 5829 5826 5823 5820
5839 5843 5847 5850 5852 5855 5858 5860 5862 5863 5865 5865 5866 5866 5865 5864 5863 5862 5861 5860 5859 5858 5857 5857 5856 5854 5853 5851 5849 5847 5845 5843 5841 5839 5836 5834 5832 5830 5827 5824 5821 5818 5815
5830 5834 5840 5844 5848 5850 5852 5855 5857 5859 5861 5861 5861 5862 5861 5861 5859 5858 5857 5856 5854 5853 5852 5852 5851 5850 5848 5846 5844 5842 5840 5838 5836 5834 5832 5829 5827 5824 5821 5819 5816 5813 5810
5824 5827 5832 5837 5842 5845 5848 5851 5852 5855 5856 5856 5857 5857 5857 5856 5855 5854 5853 5851 5849 5848 5847 5846 5845 5844 5843 5841 5839 5837 5835 5833 5831 5828 5826 5824 5821 5818 5815 5812 5810 5806 5803
5818 5822 5826 5830 5835 5839 5843 5846 5848 5850 5851 5852 5852 5852 5852 5852 5851 5850 5848 5846 5844 5842 5841 5840 5839 5838 5837 5835 5833 5831 5829 5827 5825 5822 5820 5817 5814 5811 5809 5806 5803 5800 5796
5811 5816 5821 5825 5829 5833 5837 5840 5842 5844 5845 5847 5847 5847 5847 5847 5846 5845 5843 5841 5839 5837 5835 5834 5832 5831 5830 5829 5827 5825 5822 5820 5818 5815 5813 5809 5806 5804 5801 5798 5795 5792 5788
5804 5809 5814 5819 5823 5827 5830 5833 5836 5838 5839 5841 5841 5841 5842 5841 5841 5840 5838 5835 5833 5831 5829 5828 5826 5824 5823 5821 5820 5817 5815 5812 5810 5807 5805 5802 5799 5796 5793 5790 5787 5783 5778
5797 5802 5807 5812 5817 5820 5824 5826 5829 5831 5833 5834 5835 5835 5835 5835 5834 5834 5832 5830 5827 5825 5822 5821 5819 5818 5816 5814 5812 5809 5807 5805 5802 5799 5796 5793 5790 5788 5784 5781 5777 5773 5769
5788 5795 5800 5805 5809 5813 5817 5819 5822 5824 5826 5827 5828 5829 5828 5828 5828 5827 5825 5823 5821 5818 5816 5814 5812 5810 5808 5806 5804 5802 5799 5796 5793 5790 5788 5784 5781 5779 5775 5771 5767 5764 5761
5781 5788 5793 5797 5802 5805 5809 5812 5814 5816 5817 5819 5820 5821 5821 5821 5820 5820 5818 5816 5813 5811 5809 5806 5804 5802 5800 5798 5795 5793 5790 5788 5784 5781 5778 5775 5771 5768 5764 5761 5758 5755 5751
5774 5780 5785 5788 5793 5797 5800 5803 5806 5808 5810 5811 5812 5812 5813 5813 5813 5812 5810 5808 5806 5803 5800 5797 5795 5793 5791 5789 5786 5784 5781 5778 5774 5771 5768 5764 5760 5757 5753 5751 5747 5744 5741
5766 5772 5776 5780 5784 5788 5792 5795 5797 5799 5801 5802 5803 5804 5804 5805 5804 5803 5801 5799 5797 5794 5791 5788 5785 5783 5781 5780 5778 5775 5771 5768 5764 5762 5757 5753 5749 5745 5742 5739 5736 5733 5730
5753 5758 5765 5769 5771 5778 5782 5785 5788 5791 5792 5793 5794 5794 5795 5795 5795 5792 5791 5789 5786 5784 5782 5779 5777 5775 5772 5770 5767 5764 5761 5757 5753 5750 5745 5741 5737 5733 5730 5727 5724 5721 5717
5748 5755 5757 5761 5765 5770 5774 5777 5780 5782 5783 5784 5786 5787 5786 5786 5785 5783 5780 5779 5777 5774 5772 5770 5768 5765 5762 5759 5756 5752 5748 5745 5741 5737 5734 5729 5726 5720 5717 5714 5711 5707 5703
Wind_Speed
15 13 11 9 8 7 8 7 7 7 6 5 4 4 6 7 9 10 11 13 13 13 10 9 8 8 8 7 7 8 9 11 13 14 16 18 20 22 23 23 24 24 25
16 14 12 10 8 8 9 8 7 6 6 5 4 5 7 9 10 10 11 11 12 12 10 8 8 8 7 6 5 7 9 10 12 14 17 19 21 23 22 21 24 25 26
17 15 13 11 9 8 8 9 8 7 6 5 5 6 7 9 10 10 10 10 11 11 10 8 8 7 6 5 5 6 9 11 13 15 18 19 20 21 20 23 26 26 27
18 16 14 13 11 9 8 8 8 6 5 6 6 7 9 10 10 11 10 9 9 9 8 8 8 8 8 7 7 8 9 11 13 16 18 19 20 19 20 22 25 27 29
20 17 15 13 12 11 10 9 8 7 7 7 7 8 10 11 11 11 10 9 9 8 8 8 8 8 9 9 9 9 10 11 13 16 18 18 19 19 20 22 24 27 30
21 19 16 15 13 12 12 11 10 8 7 4 5 6 8 10 11 11 9 9 10 8 8 8 9 10 10 10 11 12 12 12 14 15 17 19 20 19 20 22 24 25 28
23 21 18 16 15 14 15 14 10 5 1 1 5 7 11 13 13 12 10 8 9 9 8 9 10 12 12 13 13 13 14 15 15 16 18 19 20 21 21 22 24 26 27
26 23 19 17 16 17 17 13 7 3 2 2 5 9 13 15 14 14 12 10 9 9 9 10 12 12 13 13 14 15 15 15 15 17 18 20 21 22 24 25 25 27 28
29 26 23 19 18 19 18 13 5 6 4 5 8 11 14 14 14 15 15 13 12 11 12 10 11 12 12 13 14 15 16 17 18 18 18 21 22 23 25 26 27 26 28
30 28 25 24 19 19 20 14 9 8 6 9 11 15 15 14 15 16 16 16 16 14 14 14 13 13 13 14 15 16 18 19 19 19 20 21 22 24 26 27 28 28 27
30 28 26 24 22 20 20 16 11 9 11 12 14 16 14 14 15 16 17 18 19 18 17 17 18 17 18 18 17 18 17 18 19 19 20 22 23 24 25 28 29 30 31
32 31 29 26 22 20 20 17 14 13 16 14 17 16 16 16 17 16 17 20 21 21 20 19 21 20 19 20 20 20 21 21 20 20 20 21 22 24 26 28 30 31 31
34 33 30 29 25 23 22 23 18 17 18 17 19 18 18 18 18 20 20 21 23 23 24 23 24 22 20 21 21 22 23 24 23 23 23 23 23 24 26 28 30 30 30
38 34 31 30 28 29 23 26 25 21 20 20 20 20 19 20 20 21 22 24 25 26 26 27 25 24 23 23 23 23 25 25 26 26 26 26 26 26 27 29 31 32 32
45 38 34 32 31 32 33 34 34 25 25 23 23 23 22 23 23 23 23 24 29 31 30 30 26 28 25 27 26 25 26 27 28 28 29 29 29 29 30 31 32 33 34
41 42 40 38 36 29 28 27 28 27 27 29 27 26 24 25 25 26 26 27 26 26 28 26 28 30 28 30 29 28 28 29 30 31 31 30 30 31 32 34 35 35 36
47 45 45 42 38 36 37 33 30 30 31 31 29 28 27 28 29 28 28 28 28 26 30 28 28 30 31 33 31 30 31 31 33 34 33 32 32 33 35 37 39 39 39
52 49 44 42 39 38 35 35 35 34 32 30 31 32 31 31 31 31 31 30 31 30 30 30 31 31 32 34 35 34 34 35 38 38 37 36 36 37 37 40 42 43 43
56 53 47 46 44 42 39 36 34 34 32 34 35 36 35 35 35 34 34 33 32 32 33 32 31 32 33 35 37 39 41 42 41 41 39 39 38 39 41 43 44 45 44
56 53 51 48 47 43 42 42 39 36 35 37 37 39 39 36 39 37 37 36 35 35 33 34 37 39 40 39 40 39 43 43 44 44 43 42 41 42 45 46 46 44 39
58 57 54 50 47 47 47 44 42 41 39 39 38 41 42 40 43 41 40 40 38 37 38 36 38 40 41 42 43 45 44 45 46 45 44 43 43 46 48 48 45 40 39
56 56 57 55 51 51 50 51 48 50 47 46 43 43 44 47 45 42 42 44 41 39 40 41 42 43 44 46 47 46 46 45 46 45 44 45 48 50 49 47 43 44 43
61 55 57 58 58 57 56 53 52 52 52 50 50 49 49 50 45 45 43 45 44 43 42 42 42 43 44 45 45 47 47 46 45 44 47 49 51 50 48 46 46 44 43
59 56 60 64 61 59 58 56 56 54 53 53 53 51 51 47 43 45 47 46 45 45 44 42 42 41 43 44 46 47 48 47 46 49 51 52 51 48 48 49 47 46 47
47 54 59 49 59 58 59 58 55 56 56 56 56 53 49 45 48 46 46 46 46 45 44 42 41 42 43 46 47 47 47 49 52 53 52 50 50 53 52 50 49 50 51
50 55 49 68 64 58 58 61 57 56 57 55 55 54 51 44 44 46 45 48 46 45 44 42 42 44 46 47 47 49 51 54 55 53 51 53 54 54 53 55 55 55 54
Wind_Direction
188 181 171 166 151 146 133 132 130 129 120 108 84 53 40 30 27 25 26 29 30 30 32 36 43 42 44 46 48 41 30 20 13 8 4 0 353 350 344 341 342 345 344
194 190 180 179 168 158 150 147 142 138 129 111 82 53 38 25 21 22 23 26 26 27 26 31 29 21 18 23 24 12 6 4 4 1 358 355 351 347 345 348 351 352 350
196 195 194 186 181 175 165 155 151 144 127 104 72 49 36 26 16 13 19 19 17 17 13 9 4 4 1 2 349 349 349 351 355 353 356 353 348 347 351 355 353 352 353
198 198 195 193 189 185 175 165 152 139 114 87 63 41 25 16 13 5 5 10 5 4 2 354 348 346 344 341 334 330 335 342 347 349 352 350 349 350 355 356 353 353 351
200 199 198 194 192 186 180 167 151 131 106 76 48 30 15 1 352 353 351 356 356 1 1 353 343 337 335 335 328 324 326 334 340 343 345 345 347 349 349 351 350 351 350
200 198 197 195 195 191 181 164 146 129 106 73 16 3 349 340 337 328 333 340 343 345 357 352 348 347 341 336 326 319 316 321 329 336 337 339 342 345 344 346 346 348 349
203 199 197 197 196 192 177 164 155 137 61 60 11 352 337 328 315 315 317 318 325 326 339 342 341 340 338 332 324 318 314 314 321 328 331 335 336 341 342 341 342 343 344
205 202 199 200 198 195 187 178 169 183 237 299 329 325 329 317 308 306 304 300 306 310 310 324 326 331 334 331 324 318 315 313 315 323 327 330 333 335 338 338 341 342 341
207 205 200 199 199 200 198 184 186 213 240 289 304 312 316 305 299 302 298 292 290 296 300 308 315 320 330 330 326 322 319 317 316 319 323 327 330 332 332 335 336 340 338
207 204 200 197 193 208 207 202 217 225 238 282 294 307 310 298 292 291 290 285 282 285 291 297 304 309 316 322 325 327 327 323 320 320 323 326 327 329 327 329 331 334 334
210 209 205 203 194 205 215 218 227 246 251 271 288 306 307 300 292 291 287 283 279 280 285 291 294 296 304 307 311 316 321 325 326 327 326 326 326 325 325 325 326 329 329
212 212 210 206 205 202 215 224 243 248 254 265 283 299 302 302 289 286 288 289 279 279 284 287 292 292 300 301 303 308 310 312 316 321 325 326 327 327 325 324 324 324 324
214 214 213 210 211 215 224 234 240 247 249 264 281 291 299 300 292 285 283 288 284 279 282 287 289 290 298 299 300 303 306 306 308 310 313 317 321 323 324 322 321 321 319
214 214 221 221 213 221 230 237 242 238 255 263 280 285 292 298 300 291 283 281 283 283 282 283 288 287 292 295 298 301 302 303 304 307 310 310 312 315 319 320 320 318 318
217 214 218 225 226 226 234 249 256 255 250 266 281 283 287 294 298 295 286 287 282 277 281 278 283 284 289 292 297 300 302 304 304 305 307 310 311 310 314 316 317 316 316
224 226 214 221 224 226 226 230 236 238 255 267 279 281 283 290 295 296 290 286 291 278 275 277 279 283 288 292 296 299 301 304 306 307 305 306 307 306 306 310 313 314 313
224 227 235 218 224 232 235 234 240 242 255 266 272 277 283 289 294 294 291 289 288 283 276 276 280 283 287 292 295 300 303 304 304 305 304 305 307 306 304 310 313 314 313
227 228 229 234 224 227 229 234 240 246 252 260 271 277 282 287 290 293 293 288 285 284 281 276 278 284 287 291 293 296 299 300 302 305 306 306 305 304 305 309 312 312 310
225 227 226 229 231 229 228 234 238 242 248 260 271 276 280 285 288 292 291 289 285 286 279 273 275 280 288 292 292 291 295 299 301 303 305 305 304 304 307 309 311 310 308
223 225 229 231 233 234 235 239 236 241 248 258 266 272 274 281 286 288 290 290 288 283 284 276 274 276 280 287 290 293 296 297 300 304 304 303 303 304 307 309 308 305 302
223 226 229 231 233 239 241 242 247 251 253 258 264 268 270 279 283 284 287 288 288 287 282 279 280 281 281 285 287 290 293 295 297 300 301 302 304 306 307 306 303 299 298
220 224 230 232 234 237 241 244 246 251 254 258 262 265 269 277 279 280 286 286 286 286 284 279 276 278 280 283 285 287 290 294 298 300 302 303 305 304 303 301 298 297 297
225 226 229 233 234 238 241 243 247 251 255 258 261 264 268 273 272 279 284 285 286 287 283 280 277 278 281 283 286 289 293 297 299 300 301 302 300 300 298 295 295 296 298
230 232 234 235 236 238 241 243 246 250 254 258 261 265 264 269 275 274 280 283 284 285 283 280 279 280 283 287 291 294 295 297 298 299 298 297 297 296 294 293 293 295 296
220 234 229 217 232 235 240 244 247 251 254 256 260 261 261 266 274 271 277 280 282 283 282 280 282 285 288 290 292 293 294 296 296 295 296 295 294 292 292 291 292 293 294
227 227 230 230 227 237 242 246 249 251 257 260 261 263 257 261 269 273 278 281 283 283 282 284 287 288 290 290 291 291 292 292 293 293 292 292 293 293 292 291 291 292 293